Flag for Austria Weather past 2 weeks in Ansfelden, Upper Austria, Austria

Now
47 °F

Overcast.


Feels Like: 42 °F
Forecast: 38 / 45 °F
Wind: 9 mph from West

Location: Linz / Hoersching-Flughafen

Current Time: Oct 22, 2014 at 7:17:56 AM

Latest Report: Oct 22, 2014 at 6:00 AM


Visibility: 28 mi

Pressure: 29.86 "Hg

Humidity: 75%

Dew point: 39 °F

Location of AnsfeldenLocation

Historic Weather in Ansfelden — Graph

°F

Ansfelden temperature yesterday

Maximum temperature yesterday: 60 °F (at 4:00 PM)
Minimum temperature yesterday: 53 °F (at 10:00 PM)
Average temperature yesterday: 56 °F

Past Weeks' High & Low Weather Summary

 TemperatureHumidityPressure
High71 °F (Oct 12, 4:00 PM)100% (Oct 10, 1:00 AM)30.32 "Hg (Oct 10, 1:00 AM)
Low44 °F (Oct 7, 7:00 AM)54% (Oct 14, 5:00 PM)29.61 "Hg (Oct 21, 11:00 PM)
Average56 °F89%29.97 "Hg
* Reported Oct 7 6:00 AM — Oct 22 6:00 AM, Ansfelden, Weather by CustomWeather, © 2014

Note: Actual official high and low records may vary slightly from our data, if they occured in-between our weather recording intervals... More about our weather records

Advertising

Ansfelden weather history for previous 24 hours

 ConditionsComfort  
Time TempWeatherWind HumidityBarometerVisibility
6:00 AM
Oct 22
N/APassing clouds.14 mphN/AN/A7 mi
5:00 AM47 °FOvercast.9 mph76%29.84 "Hg31 mi
4:00 AMN/APassing clouds.16 mphN/AN/A2 mi
3:00 AM47 °FOvercast.13 mph77%29.85 "Hg31 mi
2:00 AM49 °FOvercast.13 mph74%29.86 "Hg25 mi
1:00 AM49 °FLight rain. Overcast.15 mph80%29.84 "Hg7 mi
12:00 AM49 °FSprinkles. Low clouds.15 mph82%29.80 "Hg11 mi
11:00 PM
Oct 21
53 °FRain showers. Overcast.N/A97%29.61 "Hg3 mi
10:00 PM53 °FRain showers. Passing clouds.N/A97%29.65 "Hg4 mi
9:00 PM54 °FRain showers. Overcast.N/A96%29.68 "Hg6 mi
8:00 PM55 °FRain showers. Overcast.N/A95%29.72 "Hg7 mi
7:00 PM55 °FRain showers. Overcast.N/A94%29.74 "Hg9 mi
6:00 PM56 °FOvercast.N/A92%29.76 "Hg22 mi
5:00 PM58 °FRain showers. Overcast.N/A86%29.79 "Hg22 mi
4:00 PM60 °FOvercast.N/A80%29.81 "Hg28 mi
3:00 PM57 °FOvercast.3 mph86%29.86 "Hg25 mi
2:00 PM57 °FSprinkles. Overcast.5 mph86%29.89 "Hg4 mi
1:00 PM59 °FOvercast.6 mph73%29.91 "Hg22 mi
12:00 PM59 °FPartly sunny.5 mph76%29.93 "Hg28 mi
11:00 AM58 °FPartly sunny.3 mph84%29.94 "Hg14 mi
10:00 AM56 °FOvercast.N/A88%29.95 "Hg25 mi
9:00 AMN/APassing clouds.8 mphN/AN/A2 mi
8:00 AM53 °FOvercast.3 mph93%29.95 "Hg22 mi
7:00 AM55 °FOvercast.3 mph93%29.95 "Hg28 mi
Weather by CustomWeather, © 2014

See weather overviewHow to use our weather pages